Wind_Speed
11 19 17 16 15 15 16 14 16 18 23 25 27 26 26 24 25 25 23 25 26 26 26 26 27 28 30 30 30 27 28 31 32 19 16 12 3 25 25 27 31 35 28
6 15 18 17 15 16 16 18 18 17 19 21 25 26 25 24 24 23 23 23 24 25 26 25 26 26 28 29 32 32 27 26 32 15 7 4 8 26 11 25 30 35 28
12 8 16 15 15 16 16 16 16 20 20 23 25 26 26 22 23 23 24 22 23 24 24 24 26 26 28 27 30 28 29 23 23 32 13 4 3 16 10 17 26 30 30
9 10 15 16 17 18 17 14 16 20 20 20 22 24 25 23 22 22 21 22 21 23 23 23 25 24 25 26 26 24 27 27 24 14 23 19 11 5 5 15 19 22 27
12 10 17 19 19 19 19 16 19 18 19 20 22 23 23 22 22 19 20 21 21 21 21 22 24 23 23 23 25 25 26 26 25 23 20 17 14 18 4 6 19 24 21
10 17 24 22 19 20 20 18 18 18 18 19 18 21 21 19 18 16 18 18 19 20 20 21 23 23 23 22 23 23 23 22 21 21 21 20 9 13 6 4 15 20 21
13 13 18 22 22 23 22 20 17 18 18 19 19 17 17 17 16 15 16 16 18 19 18 18 20 21 19 21 20 22 20 19 18 19 19 18 18 20 16 14 14 13 17
15 15 21 24 23 24 23 22 19 18 15 16 17 15 14 14 14 12 14 16 16 16 15 15 16 17 16 16 19 22 19 16 15 16 16 16 16 18 21 15 15 11 14
15 16 20 27 25 27 26 25 21 17 16 15 14 14 13 11 12 12 13 14 13 12 12 12 13 15 12 12 19 22 22 17 15 16 17 16 18 20 15 18 22 14 9
14 14 21 27 27 27 26 23 19 17 16 15 14 13 12 9 10 11 11 11 10 9 10 11 12 11 10 12 18 21 24 21 19 17 17 19 19 15 18 20 21 18 16
15 15 21 28 31 25 24 23 21 19 18 16 14 14 13 9 9 10 10 10 9 9 10 12 13 10 9 11 18 23 25 23 20 19 19 19 14 20 20 23 23 21 18
14 17 23 26 30 29 24 24 24 22 19 15 15 15 13 10 9 9 8 8 8 8 10 10 11 11 10 12 17 22 24 23 20 18 18 16 16 22 17 26 21 21 21
15 14 19 23 25 29 28 27 25 21 20 18 17 15 11 9 9 8 7 7 7 8 8 9 11 12 9 11 15 19 22 21 18 17 16 17 21 20 21 26 22 21 22
18 16 16 22 25 31 32 27 26 22 22 19 17 14 11 9 7 7 6 5 5 6 8 9 9 11 9 10 14 19 23 22 19 20 20 19 21 20 23 22 22 22 24
17 18 16 20 25 27 32 32 27 25 22 19 16 12 11 9 8 7 5 4 4 6 6 7 8 8 7 9 15 20 24 22 22 24 25 22 18 17 21 22 25 25 27
19 19 18 25 27 29 32 33 30 26 22 19 17 13 13 11 7 6 3 2 4 4 5 6 6 7 6 9 15 20 21 21 22 25 26 25 19 22 23 22 23 26 27
19 20 20 28 29 31 34 35 33 28 23 20 18 16 14 12 7 6 2 3 4 4 5 5 5 5 5 10 16 19 19 21 24 23 24 26 24 25 25 25 27 27 27
20 19 26 29 31 33 36 37 35 30 25 22 20 16 15 13 9 6 3 2 2 3 3 4 4 4 6 10 15 17 19 25 25 23 24 24 28 28 29 29 26 25 26
23 28 31 31 32 36 39 39 36 31 26 24 22 19 17 14 12 8 5 2 1 1 1 2 4 7 7 10 13 16 20 25 26 26 24 25 29 30 29 31 27 28 26
29 29 32 33 37 37 42 38 35 33 30 27 24 20 18 15 13 9 7 4 2 2 2 3 5 6 7 6 13 13 20 23 25 25 21 29 30 29 29 30 28 26 30
29 32 36 36 37 41 42 35 35 34 32 27 24 23 20 16 13 11 8 6 5 3 3 3 5 8 7 8 9 13 18 22 25 23 25 31 29 28 27 27 28 30 36
27 35 34 32 37 44 42 34 34 38 31 26 26 25 23 17 15 12 9 7 5 4 3 3 6 8 8 9 10 13 17 22 21 22 29 30 27 27 28 27 28 30 31
31 35 34 32 35 43 43 35 38 37 32 29 29 29 23 19 16 14 11 9 6 5 4 4 8 8 8 9 10 13 18 22 21 23 26 25 27 27 26 26 27 27 27
29 33 31 30 31 38 40 43 42 38 35 33 35 30 25 21 17 14 11 10 8 6 5 6 7 7 9 11 14 15 21 21 21 24 23 25 24 21 23 26 27 26 27
29 34 34 33 35 38 37 41 42 40 38 38 35 30 25 22 19 15 12 10 7 6 5 6 7 9 11 13 12 16 19 21 20 22 21 26 23 23 25 26 27 26 26
27 28 31 33 34 38 38 42 44 43 41 39 35 31 28 24 20 17 13 9 7 6 6 5 7 7 11 8 13 16 16 17 18 19 21 21 22 23 25 25 28 27 28
Wind_Direction
136 128 121 116 110 91 92 96 100 99 115 107 103 93 87 80 71 66 67 67 64 60 60 56 56 55 52 46 41 41 35 31 23 13 8 16 62 28 40 30 16 21 24
128 127 127 125 117 106 96 90 90 90 101 115 103 102 97 91 84 72 65 66 65 62 59 55 55 55 53 48 42 40 37 38 36 10 355 2 349 347 21 16 17 11 13
151 155 133 128 124 114 102 94 91 91 106 110 112 106 101 96 84 70 64 63 65 64 59 55 57 58 54 51 43 42 43 32 44 42 36 358 341 327 349 10 7 11 2
152 150 141 135 127 121 113 107 108 98 101 110 106 101 99 95 89 82 71 67 64 62 60 55 58 59 56 53 45 45 46 44 39 32 37 34 10 359 330 342 358 1 356
162 153 155 147 148 137 122 112 104 103 101 104 105 107 101 99 97 85 74 66 67 63 58 55 55 57 55 53 45 43 43 44 42 36 25 22 31 17 318 322 336 344 348
158 152 162 156 147 140 128 119 115 104 106 106 109 108 104 99 92 89 81 70 66 65 59 54 53 55 53 49 45 42 42 39 36 33 31 26 18 355 351 311 327 329 334
160 148 150 157 147 148 137 129 125 117 110 113 112 107 101 99 98 91 86 75 66 60 58 55 51 54 51 46 41 37 36 34 31 26 19 17 12 2 351 337 330 328 318
159 155 157 158 152 154 147 141 139 132 131 122 110 105 103 106 100 92 87 78 68 61 60 56 51 51 50 44 38 37 34 30 31 23 17 9 7 3 356 356 342 333 321
159 156 159 159 155 160 158 149 145 140 131 122 118 116 118 111 99 89 82 79 75 64 62 61 53 56 52 48 36 34 31 27 27 22 16 12 6 0 4 355 352 342 325
157 159 162 162 156 155 156 151 149 143 143 136 132 127 121 108 97 93 92 91 87 76 74 67 61 55 58 46 32 31 27 26 25 21 19 12 5 9 352 348 347 343 322
162 162 165 164 161 154 162 158 154 155 151 150 142 136 135 122 116 109 101 105 98 82 74 63 60 53 60 41 27 25 20 21 21 19 12 7 8 354 348 347 343 338 327
162 162 163 163 165 161 159 165 162 165 164 159 155 149 142 137 124 115 106 104 94 79 70 64 56 45 36 30 21 20 17 15 13 10 8 9 354 344 341 345 339 334 333
160 160 160 165 165 168 170 173 170 167 168 165 160 152 150 145 129 121 105 97 92 82 73 61 48 34 40 17 17 14 12 12 13 9 4 353 348 352 342 343 334 329 325
168 168 168 170 169 172 175 176 173 174 175 170 163 161 158 147 131 125 115 104 98 81 65 57 47 29 19 11 9 7 7 7 8 8 4 354 353 345 338 334 328 327 325
176 176 172 172 173 174 178 177 178 174 172 171 171 167 161 156 149 144 127 91 99 77 62 54 40 19 9 10 5 4 2 3 3 1 356 349 344 337 340 335 329 329 323
182 181 176 175 176 177 179 181 179 179 179 177 176 170 169 168 163 154 111 81 112 79 57 40 24 8 11 6 0 357 359 1 0 354 351 350 341 342 343 336 326 324 318
183 180 180 180 178 178 179 181 182 180 180 181 180 177 177 177 172 166 123 111 108 70 45 25 4 4 17 1 354 353 356 359 354 351 352 347 344 345 341 331 328 326 325
185 182 181 181 180 179 182 184 183 182 182 183 182 186 185 185 180 182 177 116 102 56 25 10 3 17 355 356 352 351 355 354 354 354 350 345 347 348 339 331 326 322 319
185 183 180 176 176 178 183 184 184 185 186 186 189 193 191 191 193 198 202 202 166 34 32 70 24 356 354 353 346 352 356 358 356 348 343 342 345 346 345 338 329 326 322
183 176 176 174 175 179 183 179 181 186 189 192 195 195 193 194 198 202 203 202 212 209 157 338 353 1 353 349 345 353 357 354 349 343 336 348 347 347 346 342 333 328 327
177 174 170 175 178 178 179 177 181 186 195 195 197 197 194 197 200 198 201 204 215 227 299 335 351 350 353 347 349 356 355 349 344 344 337 347 349 347 347 346 343 333 334
171 172 173 176 175 179 178 177 184 194 193 193 197 195 192 196 197 201 203 211 219 262 281 323 347 354 356 355 357 358 349 349 346 339 341 344 346 348 348 347 342 336 336
175 174 173 171 173 177 180 179 190 191 188 191 194 188 189 194 198 201 209 211 239 261 287 317 339 349 353 354 347 341 345 351 346 340 340 345 350 347 347 346 342 342 342
172 173 167 167 170 178 182 190 189 187 187 190 185 185 188 192 202 210 219 222 241 251 283 306 326 341 350 350 339 343 345 351 347 340 343 348 347 348 345 344 343 342 341
170 168 170 171 175 177 181 190 187 185 186 186 184 187 192 195 201 213 222 229 245 252 273 299 315 327 333 336 338 341 347 348 347 339 345 346 349 346 346 347 346 343 342
166 169 172 170 172 176 180 187 186 186 186 182 186 189 191 196 206 211 213 227 237 239 269 287 301 317 310 325 339 344 345 344 345 351 349 344 343 340 338 340 343 344 341
Height
840 841 844 846 848 849 847 847 844 845 842 844 843 844 846 848 849 850 849 846 845 845 842 841 838 835 833 833 831 827 825 820 816 811 807 808 809 809 812 811 810 810 809
844 842 844 847 849 848 849 848 845 846 843 845 845 848 849 852 851 855 853 849 847 847 845 846 841 838 837 835 833 831 829 827 823 821 817 815 810 808 813 812 812 812 810
840 845 842 846 848 849 849 847 847 846 848 847 848 849 851 856 853 854 855 854 852 849 849 849 844 842 841 839 838 836 834 833 830 829 829 828 827 820 814 816 815 814 812
837 841 843 844 847 850 849 851 852 848 851 850 849 851 853 857 858 858 857 857 857 855 852 852 848 847 846 843 842 841 839 837 834 834 835 835 834 830 821 818 817 817 814
833 838 841 844 850 850 851 852 849 853 853 852 853 855 857 859 858 861 859 860 859 858 857 854 851 850 850 847 846 844 841 840 840 839 838 836 834 835 833 822 816 817 814
832 834 840 846 848 849 850 853 853 855 855 855 858 859 860 860 860 864 862 863 862 860 861 856 854 854 852 849 848 848 846 843 843 842 841 839 838 836 835 831 825 819 812
828 833 838 844 846 848 851 853 856 856 858 860 861 861 861 860 865 867 864 865 862 862 862 860 858 855 856 854 852 850 849 847 845 844 842 840 839 837 834 830 825 819 812
825 830 835 840 843 847 850 854 858 859 861 861 860 861 862 866 867 867 865 862 863 863 863 862 861 858 856 857 856 852 852 850 847 846 843 841 839 836 833 830 825 815 811
821 827 833 837 842 846 850 853 857 859 859 861 861 863 866 868 866 866 864 863 864 865 864 864 862 859 860 860 857 855 854 852 849 845 843 840 838 835 833 831 828 824 812
818 826 832 836 840 843 847 850 854 856 859 862 864 865 866 867 866 866 866 866 867 867 866 864 862 863 862 861 860 858 854 850 847 844 842 839 836 834 832 830 827 824 820
815 823 829 832 836 841 846 850 853 857 860 864 864 865 867 867 867 868 867 868 868 868 866 864 863 864 864 862 859 855 852 849 847 844 841 838 836 833 830 827 824 820 816
812 818 824 829 834 838 843 848 853 857 860 862 864 866 866 867 867 867 868 868 868 867 866 866 865 864 862 861 858 855 853 850 847 844 841 838 836 832 829 825 821 817 813
810 816 822 827 831 836 842 848 852 855 858 862 863 863 865 866 866 867 868 867 868 867 866 865 863 862 862 861 858 856 854 850 847 844 841 838 834 830 827 822 818 814 810
805 813 819 824 828 834 839 845 850 853 857 859 860 861 863 864 865 867 867 868 867 866 865 864 864 863 862 860 858 856 852 849 846 843 840 836 833 829 825 821 816 811 806
802 807 813 819 825 831 836 841 846 850 853 856 858 859 861 864 866 866 867 866 866 865 865 864 864 863 861 859 857 854 851 848 844 841 837 834 831 828 824 819 813 809 803
794 801 807 814 820 826 831 836 841 846 850 853 856 858 861 863 864 865 865 865 865 865 864 864 863 862 860 858 856 853 850 847 843 840 835 831 828 825 820 816 812 808 801
786 793 800 807 813 820 825 831 837 843 847 851 854 857 859 861 862 863 864 864 864 864 864 863 862 860 859 857 855 852 848 845 842 838 834 829 825 821 816 812 807 802 797
778 785 793 801 807 814 821 827 834 839 843 848 851 855 857 859 860 862 863 863 863 863 863 862 861 859 858 856 854 851 847 844 840 836 833 827 822 817 813 807 802 797 792
768 776 785 794 802 809 816 823 829 835 840 844 848 851 854 857 859 860 861 862 862 862 862 861 860 858 856 855 852 850 846 842 838 834 830 826 820 814 809 803 798 792 786
763 770 779 788 795 803 810 818 824 830 835 840 844 849 852 854 856 858 859 860 860 860 860 859 858 857 855 853 851 848 845 841 837 833 828 823 817 811 806 801 795 789 782
756 765 772 779 787 797 805 813 819 824 830 837 842 846 849 852 854 855 857 858 858 858 858 857 856 854 853 851 849 847 843 840 835 831 825 819 814 808 803 799 794 788 781
753 759 767 774 782 790 799 807 813 819 827 834 838 843 847 850 852 853 854 855 855 855 855 854 853 852 851 849 847 844 842 838 834 829 823 817 812 806 801 796 791 785 779
743 751 759 769 776 783 791 800 806 815 822 829 834 839 843 846 849 850 851 852 852 852 852 852 851 850 849 847 845 842 839 835 831 827 822 816 809 804 799 794 789 783 777
737 746 756 765 773 780 786 792 800 809 816 822 829 834 838 842 845 847 848 849 849 849 849 849 848 847 846 844 842 839 836 832 828 824 819 813 808 803 799 792 786 781 775
732 739 747 756 764 773 781 788 796 803 810 817 824 829 833 837 840 843 844 845 846 846 846 846 845 844 843 842 839 837 833 830 827 821 816 810 805 801 795 790 784 778 773
728 736 743 750 759 767 775 783 791 798 803 811 818 823 828 832 836 838 840 842 843 843 843 843 843 842 841 839 837 835 832 828 825 820 815 809 805 800 794 788 782 777 772